Terminal Aerodrome Forecast
Issued by NWS Glasgow, MT

Home | Current Version | Previous Version | Text Only | Print | Product List | Glossary On
Versions: 1 2 3 4 5 6 7 8 9 10 11 12
000
FTUS45 KGGW 190520
TAFGGW
TAF
KGGW 190520Z 1906/2006 13005KT P6SM FEW080
     FM192100 23004KT P6SM SCT040 BKN120
     FM200200 33004KT P6SM BKN040=

USA.gov is the U.S. government's official web portal to all federal, state and local government web resources and services.